星链-36812(STARLINK-36812)

导读

STARLINK-36812(NORAD 67968)是美国太空探索技术公司(SpaceX)星链(Starlink)互联网星座中的一颗卫星,属于星链低轨互联网星座组网卫星,旨在为全球提供高速低轨卫星互联网服务。 2025年12月,该卫星突发异常,轨道高度骤降约4000米,疑似发生爆炸后与地面失联,并产生少量太空碎片。SpaceX确认卫星失控翻滚,预计其残骸会在几周内进入大气层完全烧毁,目前正联合美方机构监测碎片,暂无碰撞风险。

基本信息
目录编号:
67968
目录名称:
STARLINK-36812
国际标识:
2026-038H
轨道中心:
EARTH
卫星名称:
星链-36812
卫星全名:
星链-36812(STARLINK-36812)
卫星状态:
在轨 (已飞行108 天)
发射日期:
2026-02-25 UTC
国别 :
美国 (US)
星等 :
--
轨道信息
数据来源 国际轨道数据
星历时间: 2026-06-12T14:41:50+0800
19小时前
查看轨道信息
半长轴: 6843.678km
偏心率: 0.0001122
轨道倾角: 97.284°
近地点辐角 100.335°
升交点赤经 173.024°
平近点角 259.802°
近地点: 464.773km
远地点: 466.309km
周期: 93.906分钟
每日圈数: 15.33446
详细信息
固有亮度:
5
最大亮度:
2.5
卫星平台:
Starlink V1.0
覆盖范围:
全球
运营商:
太空探索技术公司
运营商所在国:
美国
制造商(研发单位):
太空探索技术公司
制造商所在国:
美国
使用方式:
暂无
卫星简介
Starlink 计划是 SpaceX 推出的全球卫星互联网项目,通过发射低轨道卫星,为全球尤其是偏远地区提供高速、低延迟的互联网服务。自 2019 年起,Starlink 已部署数千颗卫星,旨在缩小全球数字鸿沟,推动互联网普及。该项目还为军事、航空等行业提供通信支持,带来广泛经济效益。
2D轨道图
3D轨道图
轨道高度分析图
轨道倾角分析图
轨道综合分析图
查看轨道综合分析图